Regional Weather Roundup
Issued by NWS

Home | Current Version | Previous Version | Graphics & Text | Print | Product List | Glossary On
Versions: 1 2 3 4 5 6 7 8 9 10 11 12 13 14 15 16 17 18 19 20 21 22 23 24 25 26 27 28 29
000
ASUS45 KCYS 261510
RWRWY

WYOMING REGIONAL WEATHER ROUNDUP
NATIONAL WEATHER SERVICE CHEYENNE WY
900 AM MDT THU APR 26 2018

NOTE:  "FAIR" INDICATES FEW OR NO CLOUDS BELOW 12,000 FEET
WITH NO SIGNIFICANT WEATHER AND/OR OBSTRUCTIONS TO VISIBILITY.

WYZ001-261600-
YELLOWSTONE NATIONAL PARK

CITY           SKY/WX    TMP DP  RH WIND       PRES   REMARKS
LK YELLOWSTONE   N/A     30  25  81 E3        30.37R
W YELLOWSTONE  NOT AVBL

$$
WYZ002>013-054>058-071-098>099-261600-
NORTHERN WYOMING

CITY           SKY/WX    TMP DP  RH WIND       PRES   REMARKS
JACKSON        FAIR      39  26  59 N10       30.32S WCI  32
CODY           FAIR      45  34  65 SW12      30.30F
GREYBULL       FAIR      46  37  71 SE7       30.31S
WORLAND        FAIR      46  33  60 S3        30.31S
SHERIDAN       FAIR      52  34  50 N6        30.27F
BUFFALO        FAIR      49  29  46 N5        30.29S
GILLETTE       FAIR      48  33  56 NW12      30.27S
HULETT         FAIR      46  32  57 W5        30.26S
NEWCASTLE      FAIR      46  32  57 NW12      30.27S

$$
WYZ014>020-022>026-101>103-261600-
CENTRAL WYOMING

CITY           SKY/WX    TMP DP  RH WIND       PRES   REMARKS
BIG PINEY      FAIR      40  25  55 S9        30.34R WCI  34
PINEDALE       FAIR      37  25  60 SE6       30.35R WCI  33
DUBOIS         FAIR      36  28  75 N8        30.32S WCI  29
LANDER         FAIR      45  30  55 SE10      30.30F
RIVERTON       FAIR      43  31  62 SE8       30.32S
CASPER         FAIR      44  32  62 CALM      30.31S
DOUGLAS        FAIR      48  33  56 NW12      30.30S

$$
WYZ021-027>030-104>119-261600-
SOUTHERN WYOMING

CITY           SKY/WX    TMP DP  RH WIND       PRES   REMARKS
EVANSTON       FAIR      45  26  47 E12       30.29S
KEMMERER       FAIR      41  28  60 E10       30.33S
FORT BRIDGER   FAIR      45  29  53 E7        30.34S
ROCK SPRINGS   FAIR      42  29  59 E6        30.34R
DIXON          FAIR      45  25  45 S3        30.33S
RAWLINS        PTSUNNY   41  28  60 E13       30.33S
SARATOGA       FAIR      39  28  65 CALM      30.33S
LARAMIE        PTSUNNY   37  29  72 NW12      30.30R WCI  29
CHEYENNE       FAIR      43  29  57 N22G31    30.27R
TORRINGTON     FAIR      50  33  52 N14G24    30.25R
PINE BLUFFS    FAIR      46  32  57 N22G30    30.26R

$$




USA.gov is the U.S. government's official web portal to all federal, state and local government web resources and services.